| time (UTC) | temp F | wind direction | speed MPH | gust MPH | rain 1hr in | rain 24hr in | rain mn in | humidity % | barometer mb |
| 20260502164034 | 51 | 232 | 4.0 | 6.0 | 0.00 | 0.00 | 0.00 | 82 | 1011.6 |
| 20260502163534 | 51 | 232 | 4.0 | 6.0 | 0.00 | 0.00 | 0.00 | 81 | 1011.8 |
| 20260502163049 | 52 | 232 | 3.0 | 6.0 | 0.00 | 0.00 | 0.00 | 81 | 1011.8 |
| 20260502162534 | 52 | 232 | 2.0 | 5.0 | 0.00 | 0.00 | 0.00 | 81 | 1011.7 |
| 20260502162035 | 52 | 232 | 1.0 | 5.0 | 0.00 | 0.00 | 0.00 | 82 | 1011.8 |
| 20260502161539 | 52 | 232 | 2.0 | 5.0 | 0.00 | 0.00 | 0.00 | 82 | 1011.7 |
| 20260502161034 | 52 | 0 | 1.0 | 6.0 | 0.00 | 0.00 | 0.00 | 82 | 1011.9 |
| 20260502160535 | 52 | 232 | 1.0 | 7.0 | 0.00 | 0.00 | 0.00 | 82 | 1011.9 |
| 20260502152032 | 51 | 0 | 4.0 | 10.0 | 0.00 | 0.00 | 0.00 | 82 | 1012.2 |
| 20260502151541 | 51 | 232 | 2.0 | 6.0 | 0.00 | 0.00 | 0.00 | 82 | 1012.1 |
| 20260502151036 | 51 | 232 | 0.0 | 6.0 | 0.00 | 0.00 | 0.00 | 82 | 1012.2 |
| 20260502150534 | 51 | 232 | 3.0 | 8.0 | 0.00 | 0.00 | 0.00 | 82 | 1012.2 |
| 20260502130531 | 53 | 0 | 1.0 | 3.0 | 0.00 | 0.00 | 0.00 | 79 | 1012.1 |
| 20260502123533 | 52 | 0 | 0.0 | 5.0 | 0.00 | 0.00 | 0.00 | 80 | 1012.4 |
| 20260502123039 | 52 | 0 | 1.0 | 5.0 | 0.00 | 0.00 | 0.00 | 79 | 1012.7 |
| 20260502122530 | 52 | 232 | 2.0 | 5.0 | 0.00 | 0.00 | 0.00 | 79 | 1012.7 |
| 20260502122034 | 52 | 232 | 2.0 | 8.0 | 0.00 | 0.00 | 0.00 | 79 | 1012.7 |
| 20260502121551 | 52 | 232 | 1.0 | 8.0 | 0.00 | 0.00 | 0.00 | 79 | 1012.5 |
| 20260502121034 | 52 | 232 | 3.0 | 7.0 | 0.00 | 0.00 | 0.00 | 79 | 1012.7 |
| 20260502120535 | 52 | 232 | 2.0 | 8.0 | 0.00 | 0.00 | 0.00 | 79 | 1012.8 |
| 20260502115533 | 52 | 232 | 4.0 | 8.0 | 0.00 | 0.00 | 0.00 | 79 | 1012.9 |
| 20260502115033 | 52 | 232 | 3.0 | 8.0 | 0.00 | 0.00 | 0.00 | 79 | 1013.0 |
| 20260502114545 | 52 | 232 | 3.0 | 8.0 | 0.00 | 0.00 | 0.00 | 79 | 1012.9 |
| 20260502114030 | 51 | 232 | 3.0 | 8.0 | 0.00 | 0.00 | 0.00 | 79 | 1012.8 |
| 20260502113534 | 51 | 232 | 2.0 | 6.0 | 0.00 | 0.00 | 0.00 | 79 | 1012.7 |
| 20260502113051 | 51 | 232 | 2.0 | 6.0 | 0.00 | 0.00 | 0.00 | 79 | 1012.5 |
| 20260502112533 | 51 | 232 | 2.0 | 8.0 | 0.00 | 0.00 | 0.00 | 80 | 1012.5 |
| 20260502112031 | 51 | 232 | 2.0 | 9.0 | 0.00 | 0.00 | 0.00 | 80 | 1012.3 |
| 20260502111551 | 51 | 232 | 2.0 | 10.0 | 0.00 | 0.00 | 0.00 | 80 | 1012.4 |
| 20260502111036 | 51 | 232 | 2.0 | 10.0 | 0.00 | 0.00 | 0.00 | 80 | 1012.5 |
| 20260502110534 | 51 | 232 | 2.0 | 10.0 | 0.00 | 0.00 | 0.00 | 80 | 1012.4 |
| 20260502110040 | 51 | 232 | 3.0 | 11.0 | 0.00 | 0.00 | 0.00 | 80 | 1012.3 |
| 20260502105534 | 51 | 232 | 4.0 | 12.0 | 0.00 | 0.00 | 0.00 | 80 | 1012.2 |
| 20260502105033 | 51 | 232 | 4.0 | 12.0 | 0.00 | 0.00 | 0.00 | 80 | 1012.3 |
| 20260502104539 | 51 | 232 | 3.0 | 8.0 | 0.00 | 0.00 | 0.00 | 80 | 1012.1 |
| 20260502104033 | 51 | 232 | 3.0 | 13.0 | 0.00 | 0.00 | 0.00 | 80 | 1012.0 |
| 20260502103533 | 50 | 232 | 4.0 | 13.0 | 0.00 | 0.00 | 0.00 | 80 | 1012.0 |
| 20260502103042 | 50 | 232 | 3.0 | 11.0 | 0.00 | 0.00 | 0.00 | 80 | 1011.9 |
| 20260502102533 | 50 | 232 | 4.0 | 13.0 | 0.00 | 0.00 | 0.00 | 80 | 1011.8 |
| 20260502102032 | 50 | 232 | 4.0 | 16.0 | 0.00 | 0.00 | 0.00 | 80 | 1011.7 |
| 20260502101550 | 50 | 232 | 4.0 | 16.0 | 0.00 | 0.00 | 0.00 | 80 | 1011.8 |
| 20260502101030 | 50 | 232 | 6.0 | 14.0 | 0.00 | 0.00 | 0.00 | 80 | 1011.9 |
| 20260502100530 | 50 | 232 | 5.0 | 12.0 | 0.00 | 0.00 | 0.00 | 80 | 1011.9 |
| 20260502091033 | 50 | 233 | 2.0 | 12.0 | 0.00 | 0.00 | 0.00 | 78 | 1011.4 |
| 20260502090533 | 50 | 233 | 4.0 | 12.0 | 0.00 | 0.00 | 0.00 | 78 | 1011.3 |
| 20260502071030 | 50 | 234 | 1.0 | 8.0 | 0.00 | 0.00 | 0.00 | 76 | 1011.9 |
| 20260502070530 | 50 | 234 | 2.0 | 9.0 | 0.00 | 0.00 | 0.00 | 76 | 1011.9 |
| 20260502070039 | 50 | 234 | 2.0 | 10.0 | 0.00 | 0.00 | 0.00 | 76 | 1011.8 |
| 20260502065536 | 50 | 234 | 4.0 | 10.0 | 0.00 | 0.00 | 0.00 | 76 | 1011.9 |
| 20260502065033 | 50 | 233 | 2.0 | 7.0 | 0.00 | 0.00 | 0.00 | 76 | 1012.0 |
| 20260502064538 | 50 | 233 | 2.0 | 10.0 | 0.00 | 0.00 | 0.00 | 77 | 1012.2 |
| 20260502064033 | 50 | 222 | 3.0 | 11.0 | 0.00 | 0.00 | 0.00 | 76 | 1011.9 |
| 20260502063537 | 50 | 233 | 5.0 | 11.0 | 0.00 | 0.00 | 0.00 | 76 | 1012.0 |
| 20260502063045 | 50 | 233 | 3.0 | 12.0 | 0.00 | 0.00 | 0.00 | 76 | 1012.1 |
| 20260502062536 | 50 | 233 | 4.0 | 12.0 | 0.00 | 0.00 | 0.00 | 76 | 1012.1 |
| 20260502062030 | 50 | 233 | 2.0 | 11.0 | 0.00 | 0.00 | 0.00 | 77 | 1012.0 |
| 20260502061543 | 50 | 233 | 2.0 | 9.0 | 0.00 | 0.00 | 0.00 | 77 | 1012.0 |
| 20260502061030 | 50 | 233 | 1.0 | 10.0 | 0.00 | 0.00 | 0.00 | 77 | 1012.0 |
| 20260502060530 | 50 | 234 | 3.0 | 10.0 | 0.00 | 0.00 | 0.00 | 77 | 1012.1 |
| 20260502060039 | 50 | 233 | 3.0 | 9.0 | 0.00 | 0.00 | 0.00 | 77 | 1012.0 |
| 20260502055530 | 50 | 234 | 2.0 | 11.0 | 0.00 | 0.00 | 0.00 | 77 | 1012.1 |
| 20260502055033 | 50 | 233 | 2.0 | 11.0 | 0.00 | 0.00 | 0.00 | 77 | 1012.1 |
| 20260502054542 | 50 | 233 | 2.0 | 8.0 | 0.00 | 0.00 | 0.00 | 77 | 1012.1 |
| 20260502054031 | 50 | 233 | 2.0 | 7.0 | 0.00 | 0.00 | 0.00 | 78 | 1012.0 |
| 20260502053530 | 50 | 233 | 1.0 | 6.0 | 0.00 | 0.00 | 0.00 | 78 | 1012.0 |
| 20260502053038 | 50 | 234 | 1.0 | 8.0 | 0.00 | 0.00 | 0.00 | 78 | 1012.1 |
| 20260502052532 | 50 | 233 | 1.0 | 8.0 | 0.00 | 0.00 | 0.00 | 78 | 1012.2 |
| 20260502052031 | 50 | 233 | 1.0 | 7.0 | 0.00 | 0.00 | 0.00 | 78 | 1012.4 |
| 20260502051603 | 50 | 234 | 2.0 | 7.0 | 0.00 | 0.00 | 0.00 | 78 | 1012.4 |
| 20260502051034 | 50 | 234 | 3.0 | 11.0 | 0.00 | 0.00 | 0.00 | 78 | 1012.4 |
| 20260502050533 | 50 | 0 | 1.0 | 12.0 | 0.00 | 0.00 | 0.00 | 78 | 1012.6 |
| 20260502050047 | 50 | 233 | 3.0 | 12.0 | 0.00 | 0.00 | 0.00 | 78 | 1012.7 |
| 20260502045532 | 50 | 233 | 3.0 | 8.0 | 0.00 | 0.00 | 0.00 | 78 | 1012.5 |
| 20260502045036 | 50 | 233 | 2.0 | 7.0 | 0.00 | 0.00 | 0.00 | 78 | 1012.5 |
| 20260502044540 | 50 | 233 | 3.0 | 7.0 | 0.00 | 0.00 | 0.00 | 77 | 1012.9 |
| 20260502044035 | 50 | 0 | 2.0 | 7.0 | 0.00 | 0.00 | 0.00 | 77 | 1013.1 |
| 20260502043530 | 50 | 233 | 2.0 | 5.0 | 0.00 | 0.00 | 0.00 | 77 | 1012.9 |
| 20260502043040 | 50 | 233 | 0.0 | 2.0 | 0.00 | 0.00 | 0.00 | 77 | 1012.8 |
| 20260502042536 | 50 | 0 | 0.0 | 2.0 | 0.00 | 0.00 | 0.00 | 77 | 1012.8 |
| 20260502042033 | 49 | 0 | 0.0 | 2.0 | 0.00 | 0.00 | 0.00 | 77 | 1012.7 |
| 20260502041600 | 50 | 0 | 0.0 | 0.0 | 0.00 | 0.00 | 0.00 | 76 | 1012.7 |
| 20260502041032 | 50 | 0 | 0.0 | 0.0 | 0.00 | 0.00 | 0.00 | 76 | 1012.6 |
| 20260502040530 | 50 | 0 | 0.0 | 1.0 | 0.00 | 0.00 | 0.00 | 76 | 1012.7 |
| 20260502040043 | 50 | 0 | 0.0 | 4.0 | 0.00 | 0.00 | 0.00 | 75 | 1012.7 |
| 20260502035530 | 50 | 0 | 0.0 | 5.0 | 0.00 | 0.00 | 0.00 | 75 | 1012.7 |
| 20260502035030 | 50 | 234 | 0.0 | 6.0 | 0.00 | 0.00 | 0.00 | 75 | 1012.7 |
| 20260502034545 | 50 | 234 | 3.0 | 10.0 | 0.00 | 0.00 | 0.00 | 74 | 1012.8 |
| 20260502034033 | 50 | 233 | 2.0 | 10.0 | 0.00 | 0.00 | 0.00 | 74 | 1012.9 |
| 20260502033536 | 50 | 233 | 1.0 | 10.0 | 0.00 | 0.00 | 0.00 | 74 | 1012.9 |
| 20260502033058 | 50 | 233 | 4.0 | 11.0 | 0.00 | 0.00 | 0.00 | 74 | 1012.8 |
| 20260502032533 | 50 | 233 | 3.0 | 11.0 | 0.00 | 0.00 | 0.00 | 74 | 1012.9 |
| 20260502032033 | 50 | 233 | 4.0 | 9.0 | 0.00 | 0.00 | 0.00 | 75 | 1012.9 |
| 20260502031539 | 50 | 234 | 3.0 | 10.0 | 0.00 | 0.00 | 0.00 | 76 | 1013.1 |
| 20260502031033 | 50 | 233 | 5.0 | 10.0 | 0.00 | 0.00 | 0.00 | 77 | 1013.2 |
| 20260502030533 | 51 | 234 | 6.0 | 10.0 | 0.00 | 0.00 | 0.00 | 77 | 1013.2 |
| 20260502030039 | 51 | 234 | 5.0 | 9.0 | 0.00 | 0.00 | 0.00 | 77 | 1013.3 |
| 20260502025533 | 51 | 233 | 1.0 | 9.0 | 0.00 | 0.00 | 0.00 | 74 | 1013.0 |
| 20260502025030 | 51 | 233 | 1.0 | 10.0 | 0.00 | 0.00 | 0.00 | 75 | 1013.1 |
| 20260502024543 | 51 | 234 | 5.0 | 10.0 | 0.00 | 0.00 | 0.00 | 76 | 1013.1 |
| 20260502024035 | 52 | 234 | 7.0 | 10.0 | 0.00 | 0.00 | 0.00 | 75 | 1013.1 |
| 20260502023530 | 52 | 234 | 1.0 | 10.0 | 0.00 | 0.00 | 0.00 | 73 | 1012.9 |
| 20260502023043 | 52 | 0 | 0.0 | 10.0 | 0.00 | 0.00 | 0.00 | 73 | 1012.8 |
| 20260502022533 | 52 | 233 | 2.0 | 9.0 | 0.00 | 0.00 | 0.00 | 73 | 1012.7 |
| 20260502022034 | 52 | 233 | 3.0 | 9.0 | 0.00 | 0.00 | 0.00 | 74 | 1012.6 |
| 20260502021539 | 52 | 234 | 3.0 | 10.0 | 0.00 | 0.00 | 0.00 | 74 | 1012.6 |
| 20260502021033 | 52 | 233 | 3.0 | 11.0 | 0.00 | 0.00 | 0.00 | 74 | 1012.5 |
| 20260502020533 | 52 | 233 | 2.0 | 11.0 | 0.00 | 0.00 | 0.00 | 75 | 1012.5 |
| 20260502020043 | 52 | 233 | 4.0 | 10.0 | 0.00 | 0.00 | 0.00 | 75 | 1012.5 |
| 20260502015533 | 52 | 234 | 3.0 | 10.0 | 0.00 | 0.00 | 0.00 | 75 | 1012.4 |
| 20260502015030 | 52 | 234 | 2.0 | 11.0 | 0.00 | 0.00 | 0.00 | 74 | 1012.4 |
| 20260502014618 | 51 | 233 | 4.0 | 11.0 | 0.00 | 0.00 | 0.00 | 75 | 1012.3 |
| 20260502014032 | 51 | 234 | 3.0 | 10.0 | 0.00 | 0.00 | 0.00 | 75 | 1012.4 |
| 20260502013532 | 51 | 233 | 2.0 | 10.0 | 0.00 | 0.00 | 0.00 | 75 | 1012.4 |
| 20260502013045 | 51 | 234 | 4.0 | 10.0 | 0.00 | 0.00 | 0.00 | 75 | 1012.4 |
| 20260502012531 | 51 | 234 | 2.0 | 12.0 | 0.00 | 0.00 | 0.00 | 74 | 1012.7 |
| 20260502012033 | 51 | 234 | 2.0 | 12.0 | 0.00 | 0.00 | 0.00 | 74 | 1012.6 |
| 20260502011544 | 51 | 234 | 3.0 | 12.0 | 0.00 | 0.00 | 0.00 | 74 | 1012.6 |
| 20260502011031 | 51 | 233 | 4.0 | 12.0 | 0.00 | 0.00 | 0.00 | 74 | 1012.6 |
| 20260502010531 | 51 | 233 | 4.0 | 11.0 | 0.00 | 0.00 | 0.00 | 74 | 1012.6 |
| 20260502010043 | 51 | 233 | 4.0 | 11.0 | 0.00 | 0.00 | 0.00 | 74 | 1012.5 |
| 20260502005530 | 51 | 0 | 3.0 | 10.0 | 0.00 | 0.01 | 0.00 | 73 | 1012.5 |
| 20260502005030 | 51 | 234 | 4.0 | 18.0 | 0.00 | 0.01 | 0.00 | 73 | 1012.5 |
| 20260502004539 | 51 | 234 | 4.0 | 18.0 | 0.00 | 0.01 | 0.00 | 73 | 1012.5 |
| 20260502004032 | 51 | 233 | 5.0 | 14.0 | 0.00 | 0.01 | 0.00 | 72 | 1012.5 |
| 20260502003532 | 52 | 234 | 3.0 | 14.0 | 0.00 | 0.01 | 0.00 | 72 | 1012.4 |
| 20260502003042 | 52 | 234 | 3.0 | 13.0 | 0.00 | 0.01 | 0.00 | 72 | 1012.3 |
| 20260502002535 | 52 | 234 | 5.0 | 14.0 | 0.00 | 0.01 | 0.00 | 71 | 1012.1 |
| 20260502002032 | 52 | 234 | 5.0 | 14.0 | 0.00 | 0.01 | 0.00 | 71 | 1012.0 |
| 20260502001544 | 52 | 234 | 3.0 | 13.0 | 0.00 | 0.01 | 0.00 | 71 | 1012.0 |
| 20260502001032 | 52 | 234 | 4.0 | 11.0 | 0.00 | 0.01 | 0.00 | 71 | 1011.9 |
| 20260502000531 | 52 | 234 | 5.0 | 11.0 | 0.00 | 0.01 | 0.00 | 71 | 1011.8 |
| 20260502000045 | 52 | 234 | 3.0 | 13.0 | 0.00 | 0.01 | 0.00 | 71 | 1011.6 |
| 20260501235532 | 52 | 234 | 4.0 | 13.0 | 0.00 | 0.01 | 0.00 | 70 | 1011.6 |
| 20260501235033 | 53 | 234 | 4.0 | 15.0 | 0.00 | 0.01 | 0.00 | 69 | 1011.4 |
| 20260501234544 | 53 | 234 | 4.0 | 15.0 | 0.00 | 0.01 | 0.00 | 69 | 1011.4 |
| 20260501234030 | 53 | 234 | 4.0 | 13.0 | 0.00 | 0.01 | 0.00 | 68 | 1011.3 |
| 20260501233535 | 53 | 234 | 4.0 | 13.0 | 0.00 | 0.01 | 0.00 | 67 | 1011.2 |
| 20260501233045 | 54 | 234 | 3.0 | 12.0 | 0.00 | 0.01 | 0.00 | 67 | 1011.2 |
| 20260501232530 | 54 | 234 | 5.0 | 12.0 | 0.00 | 0.01 | 0.00 | 65 | 1011.2 |
| 20260501232033 | 54 | 234 | 5.0 | 15.0 | 0.00 | 0.01 | 0.00 | 64 | 1011.2 |
| 20260501231557 | 55 | 234 | 5.0 | 16.0 | 0.00 | 0.01 | 0.00 | 63 | 1011.2 |
| 20260501231032 | 55 | 236 | 5.0 | 16.0 | 0.00 | 0.01 | 0.00 | 63 | 1011.1 |
| 20260501230532 | 55 | 236 | 5.0 | 17.0 | 0.00 | 0.01 | 0.00 | 61 | 1011.1 |
| 20260501230038 | 56 | 236 | 5.0 | 17.0 | 0.00 | 0.01 | 0.00 | 61 | 1011.0 |
| 20260501225530 | 56 | 238 | 6.0 | 14.0 | 0.00 | 0.01 | 0.00 | 60 | 1010.9 |
| 20260501225033 | 57 | 238 | 7.0 | 14.0 | 0.00 | 0.01 | 0.00 | 59 | 1011.0 |
| 20260501224547 | 57 | 239 | 4.0 | 13.0 | 0.00 | 0.01 | 0.00 | 59 | 1010.9 |
| 20260501224029 | 58 | 239 | 6.0 | 15.0 | 0.00 | 0.01 | 0.00 | 57 | 1010.9 |
| 20260501223553 | 58 | 239 | 6.0 | 15.0 | 0.00 | 0.01 | 0.00 | 56 | 1010.7 |
| 20260501223109 | 59 | 242 | 6.0 | 19.0 | 0.00 | 0.01 | 0.00 | 55 | 1010.7 |
| 20260501222540 | 59 | 242 | 6.0 | 19.0 | 0.00 | 0.01 | 0.00 | 54 | 1010.8 |
| 20260501222035 | 59 | 260 | 7.0 | 13.0 | 0.00 | 0.01 | 0.00 | 54 | 1010.7 |
| 20260501221550 | 59 | 260 | 5.0 | 11.0 | 0.00 | 0.01 | 0.00 | 55 | 1010.8 |
| 20260501221034 | 60 | 260 | 4.0 | 12.0 | 0.00 | 0.01 | 0.00 | 53 | 1010.7 |
| 20260501220536 | 61 | 260 | 6.0 | 12.0 | 0.00 | 0.01 | 0.00 | 49 | 1010.7 |
| 20260501220052 | 62 | 261 | 5.0 | 12.0 | 0.00 | 0.01 | 0.00 | 38 | 1010.6 |
| 20260501215536 | 62 | 261 | 4.0 | 9.0 | 0.00 | 0.01 | 0.00 | 40 | 1010.7 |
| 20260501215036 | 62 | 261 | 4.0 | 12.0 | 0.00 | 0.01 | 0.00 | 41 | 1010.7 |
| 20260501214555 | 62 | 260 | 5.0 | 12.0 | 0.00 | 0.01 | 0.00 | 41 | 1010.7 |
| 20260501214033 | 61 | 261 | 6.0 | 12.0 | 0.00 | 0.01 | 0.00 | 40 | 1010.7 |
| 20260501213536 | 61 | 261 | 5.0 | 13.0 | 0.00 | 0.01 | 0.00 | 42 | 1010.7 |
| 20260501213047 | 61 | 261 | 6.0 | 13.0 | 0.00 | 0.01 | 0.00 | 40 | 1010.7 |
| 20260501212533 | 61 | 261 | 7.0 | 13.0 | 0.00 | 0.01 | 0.00 | 42 | 1010.6 |
| 20260501212035 | 61 | 261 | 6.0 | 13.0 | 0.00 | 0.01 | 0.00 | 42 | 1010.5 |
| 20260501211543 | 61 | 261 | 5.0 | 13.0 | 0.00 | 0.01 | 0.00 | 42 | 1010.6 |
| 20260501211034 | 61 | 261 | 7.0 | 12.0 | 0.00 | 0.01 | 0.00 | 42 | 1010.5 |
| 20260501210535 | 61 | 261 | 6.0 | 13.0 | 0.00 | 0.01 | 0.00 | 44 | 1010.5 |
| 20260501210044 | 61 | 261 | 8.0 | 13.0 | 0.00 | 0.01 | 0.00 | 43 | 1010.5 |
| 20260501205535 | 61 | 260 | 5.0 | 13.0 | 0.00 | 0.01 | 0.00 | 44 | 1010.6 |
| 20260501205035 | 61 | 261 | 6.0 | 15.0 | 0.00 | 0.01 | 0.00 | 42 | 1010.7 |
| 20260501204543 | 61 | 261 | 7.0 | 15.0 | 0.00 | 0.01 | 0.00 | 43 | 1010.7 |
| 20260501204034 | 60 | 261 | 6.0 | 12.0 | 0.00 | 0.01 | 0.00 | 44 | 1010.7 |
| 20260501203535 | 60 | 261 | 6.0 | 15.0 | 0.00 | 0.01 | 0.00 | 43 | 1010.7 |
| 20260501203050 | 60 | 261 | 7.0 | 18.0 | 0.00 | 0.01 | 0.00 | 45 | 1010.7 |
| 20260501202535 | 59 | 261 | 10.0 | 18.0 | 0.00 | 0.01 | 0.00 | 44 | 1010.8 |
| 20260501202035 | 59 | 261 | 8.0 | 18.0 | 0.00 | 0.01 | 0.00 | 43 | 1010.7 |
| 20260501201552 | 59 | 261 | 10.0 | 17.0 | 0.00 | 0.01 | 0.00 | 45 | 1010.8 |
| 20260501201034 | 59 | 261 | 9.0 | 18.0 | 0.00 | 0.01 | 0.00 | 44 | 1010.7 |
| 20260501200536 | 59 | 261 | 10.0 | 18.0 | 0.00 | 0.01 | 0.00 | 44 | 1010.7 |
| 20260501200047 | 59 | 261 | 9.0 | 16.0 | 0.00 | 0.01 | 0.00 | 45 | 1010.7 |
| 20260501195534 | 59 | 262 | 8.0 | 16.0 | 0.00 | 0.01 | 0.00 | 45 | 1010.7 |
| 20260501195035 | 59 | 262 | 9.0 | 15.0 | 0.00 | 0.01 | 0.00 | 47 | 1010.7 |
| 20260501194543 | 59 | 262 | 7.0 | 14.0 | 0.00 | 0.01 | 0.00 | 47 | 1010.8 |
| 20260501194034 | 59 | 262 | 6.0 | 17.0 | 0.00 | 0.01 | 0.00 | 46 | 1010.8 |
| 20260501193534 | 59 | 262 | 6.0 | 17.0 | 0.00 | 0.01 | 0.00 | 47 | 1010.9 |
| 20260501193046 | 58 | 258 | 9.0 | 17.0 | 0.00 | 0.01 | 0.00 | 48 | 1010.9 |
| 20260501192530 | 58 | 262 | 9.0 | 16.0 | 0.00 | 0.01 | 0.00 | 48 | 1010.8 |
| 20260501192030 | 58 | 262 | 10.0 | 16.0 | 0.00 | 0.01 | 0.00 | 50 | 1010.8 |
| 20260501191538 | 58 | 263 | 9.0 | 16.0 | 0.00 | 0.01 | 0.00 | 47 | 1010.9 |
| 20260501191030 | 58 | 263 | 9.0 | 15.0 | 0.00 | 0.01 | 0.00 | 48 | 1011.0 |
| 20260501190531 | 58 | 264 | 7.0 | 15.0 | 0.00 | 0.01 | 0.00 | 48 | 1011.0 |
| 20260501190039 | 58 | 264 | 8.0 | 17.0 | 0.00 | 0.01 | 0.00 | 48 | 1011.1 |
| 20260501185530 | 58 | 264 | 8.0 | 17.0 | 0.00 | 0.01 | 0.00 | 50 | 1011.1 |
| 20260501185030 | 58 | 264 | 7.0 | 16.0 | 0.00 | 0.01 | 0.00 | 52 | 1011.1 |
| 20260501184539 | 57 | 265 | 10.0 | 16.0 | 0.00 | 0.01 | 0.00 | 52 | 1011.1 |
| 20260501184031 | 57 | 267 | 9.0 | 16.0 | 0.00 | 0.01 | 0.00 | 52 | 1011.2 |
| 20260501183533 | 57 | 267 | 9.0 | 16.0 | 0.00 | 0.01 | 0.00 | 54 | 1011.2 |
| 20260501183034 | 57 | 269 | 7.0 | 16.0 | 0.00 | 0.01 | 0.00 | 52 | 1011.3 |
| 20260501182530 | 56 | 269 | 9.0 | 16.0 | 0.00 | 0.01 | 0.00 | 52 | 1011.4 |
| 20260501182030 | 56 | 271 | 8.0 | 14.0 | 0.00 | 0.01 | 0.00 | 55 | 1011.4 |
| 20260501181543 | 56 | 271 | 10.0 | 14.0 | 0.00 | 0.01 | 0.00 | 59 | 1011.4 |
| 20260501181030 | 56 | 271 | 9.0 | 13.0 | 0.00 | 0.01 | 0.00 | 58 | 1011.4 |
| 20260501180530 | 56 | 271 | 7.0 | 14.0 | 0.00 | 0.01 | 0.00 | 59 | 1011.4 |
| 20260501180056 | 55 | 271 | 8.0 | 14.0 | 0.00 | 0.01 | 0.00 | 59 | 1011.4 |
| 20260501175534 | 55 | 271 | 10.0 | 14.0 | 0.00 | 0.01 | 0.00 | 61 | 1011.4 |
| 20260501175031 | 55 | 271 | 10.0 | 14.0 | 0.00 | 0.01 | 0.00 | 60 | 1011.4 |
| 20260501174556 | 55 | 271 | 10.0 | 14.0 | 0.00 | 0.01 | 0.00 | 62 | 1011.5 |
| 20260501174034 | 54 | 272 | 10.0 | 15.0 | 0.00 | 0.01 | 0.00 | 62 | 1011.5 |
| 20260501173530 | 54 | 271 | 10.0 | 15.0 | 0.00 | 0.01 | 0.00 | 64 | 1011.5 |
| 20260501173040 | 54 | 271 | 10.0 | 14.0 | 0.00 | 0.01 | 0.00 | 64 | 1011.6 |
| 20260501172534 | 54 | 271 | 8.0 | 14.0 | 0.00 | 0.01 | 0.00 | 67 | 1011.5 |
| 20260501172031 | 54 | 271 | 9.0 | 15.0 | 0.00 | 0.01 | 0.00 | 66 | 1011.6 |
| 20260501171537 | 53 | 271 | 9.0 | 15.0 | 0.00 | 0.01 | 0.00 | 66 | 1011.6 |